Data supplied by UK-AIR on 14/3/2017
All Data GMT hour ending 
Status: R =Ratified P=Provisional,P*=As supplied
,,Belfast Stockman's Lane,,,,,,,,,,,,,,,,,,,,,,,
Date,time,"PM<sub>10</sub> particulate matter (Hourly measured)",status,unit,"Nitric oxide",status,unit,"Nitrogen dioxide",status,unit,"Nitrogen oxides as nitrogen dioxide",status,unit
 
01-01-2016,01:00,9.066,R,ugm-3 (Ref.eq),8.26419,R,ugm-3,12.96548,R,ugm-3,25.63706,R,ugm-3
01-01-2016,02:00,7.441,R,ugm-3 (Ref.eq),21.43111,R,ugm-3,42.41734,R,ugm-3,75.27791,R,ugm-3
01-01-2016,03:00,18.216,R,ugm-3 (Ref.eq),48.56986,R,ugm-3,64.17107,R,ugm-3,138.64382,R,ugm-3
01-01-2016,04:00,19.033,R,ugm-3 (Ref.eq),35.05287,R,ugm-3,49.37071,R,ugm-3,103.11770,R,ugm-3
01-01-2016,05:00,14.558,R,ugm-3 (Ref.eq),40.06078,R,ugm-3,46.64540,R,ugm-3,108.07107,R,ugm-3
01-01-2016,06:00,18.016,R,ugm-3 (Ref.eq),21.25586,R,ugm-3,44.42642,R,ugm-3,77.01829,R,ugm-3
01-01-2016,07:00,8.858,R,ugm-3 (Ref.eq),35.71831,R,ugm-3,48.40298,R,ugm-3,103.17029,R,ugm-3
01-01-2016,08:00,18.216,R,ugm-3 (Ref.eq),91.08190,R,ugm-3,62.84905,R,ugm-3,202.50602,R,ugm-3
01-01-2016,09:00,14.966,R,ugm-3 (Ref.eq),53.05266,R,ugm-3,62.67693,R,ugm-3,144.02320,R,ugm-3
01-01-2016,10:00,12.933,R,ugm-3 (Ref.eq),26.61364,R,ugm-3,51.60451,R,ugm-3,92.41152,R,ugm-3
01-01-2016,11:00,25.341,R,ugm-3 (Ref.eq),98.01533,R,ugm-3,87.10529,R,ugm-3,237.39337,R,ugm-3
01-01-2016,12:00,8.250,R,ugm-3 (Ref.eq),18.52459,R,ugm-3,33.80774,R,ugm-3,62.21171,R,ugm-3
01-01-2016,13:00,31.240,R,ugm-3 (Ref.eq),16.84385,R,ugm-3,31.80392,R,ugm-3,57.63080,R,ugm-3
01-01-2016,14:00,19.441,R,ugm-3 (Ref.eq),14.00749,R,ugm-3,23.58256,R,ugm-3,45.06041,R,ugm-3
01-01-2016,15:00,14.358,R,ugm-3 (Ref.eq),15.40759,R,ugm-3,25.05805,R,ugm-3,48.68269,R,ugm-3
01-01-2016,16:00,15.374,R,ugm-3 (Ref.eq),13.86717,R,ugm-3,24.75636,R,ugm-3,46.01905,R,ugm-3
01-01-2016,17:00,11.508,R,ugm-3 (Ref.eq),8.85957,R,ugm-3,15.55054,R,ugm-3,29.13503,R,ugm-3
01-01-2016,18:00,18.016,R,ugm-3 (Ref.eq),8.47416,R,ugm-3,18.37913,R,ugm-3,31.37265,R,ugm-3
01-01-2016,19:00,23.507,R,ugm-3 (Ref.eq),6.68833,R,ugm-3,17.70832,R,ugm-3,27.96362,R,ugm-3
01-01-2016,20:00,22.082,R,ugm-3 (Ref.eq),5.14761,R,ugm-3,13.46543,R,ugm-3,21.35832,R,ugm-3
01-01-2016,21:00,24.324,R,ugm-3 (Ref.eq),4.48248,R,ugm-3,14.27203,R,ugm-3,21.14508,R,ugm-3
01-01-2016,22:00,16.391,R,ugm-3 (Ref.eq),4.16723,R,ugm-3,13.69015,R,ugm-3,20.07982,R,ugm-3
01-01-2016,23:00,21.474,R,ugm-3 (Ref.eq),3.81705,R,ugm-3,12.62919,R,ugm-3,18.48192,R,ugm-3
01-01-2016,24:00,19.641,R,ugm-3 (Ref.eq),2.80112,R,ugm-3,8.91464,R,ugm-3,13.20964,R,ugm-3
02-01-2016,01:00,15.783,R,ugm-3 (Ref.eq),2.75737,R,ugm-3,6.35333,R,ugm-3,10.58123,R,ugm-3
02-01-2016,02:00,15.574,R,ugm-3 (Ref.eq),1.68261,R,ugm-3,5.94214,R,ugm-3,8.52210,R,ugm-3
02-01-2016,03:00,16.183,R,ugm-3 (Ref.eq),2.06802,R,ugm-3,6.73630,R,ugm-3,9.90723,R,ugm-3
02-01-2016,04:00,18.216,R,ugm-3 (Ref.eq),2.13787,R,ugm-3,6.04254,R,ugm-3,9.32057,R,ugm-3
02-01-2016,05:00,14.358,R,ugm-3 (Ref.eq),1.92801,R,ugm-3,8.86874,R,ugm-3,11.82499,R,ugm-3
02-01-2016,06:00,19.033,R,ugm-3 (Ref.eq),4.24082,R,ugm-3,8.83718,R,ugm-3,15.33968,R,ugm-3
02-01-2016,07:00,15.574,R,ugm-3 (Ref.eq),6.83427,R,ugm-3,13.54241,R,ugm-3,24.02148,R,ugm-3
02-01-2016,08:00,14.558,R,ugm-3 (Ref.eq),6.90474,R,ugm-3,13.80729,R,ugm-3,24.39442,R,ugm-3
02-01-2016,09:00,8.858,R,ugm-3 (Ref.eq),7.00983,R,ugm-3,19.34542,R,ugm-3,30.09367,R,ugm-3
02-01-2016,10:00,14.358,R,ugm-3 (Ref.eq),17.38424,R,ugm-3,30.38915,R,ugm-3,57.04462,R,ugm-3
02-01-2016,11:00,23.107,R,ugm-3 (Ref.eq),28.91553,R,ugm-3,41.47065,R,ugm-3,85.80718,R,ugm-3
02-01-2016,12:00,24.932,R,ugm-3 (Ref.eq),35.57487,R,ugm-3,40.42069,R,ugm-3,94.96806,R,ugm-3
02-01-2016,13:00,19.441,R,ugm-3 (Ref.eq),28.91553,R,ugm-3,42.16345,R,ugm-3,86.49998,R,ugm-3
02-01-2016,14:00,18.424,R,ugm-3 (Ref.eq),35.96059,R,ugm-3,43.29135,R,ugm-3,98.43016,R,ugm-3
02-01-2016,15:00,12.116,R,ugm-3 (Ref.eq),28.45996,R,ugm-3,43.44674,R,ugm-3,87.08473,R,ugm-3
02-01-2016,16:00,11.300,R,ugm-3 (Ref.eq),27.40848,R,ugm-3,47.50937,R,ugm-3,89.53512,R,ugm-3
02-01-2016,17:00,12.933,R,ugm-3 (Ref.eq),18.36556,R,ugm-3,39.00496,R,ugm-3,67.16509,R,ugm-3
02-01-2016,18:00,20.458,R,ugm-3 (Ref.eq),49.24372,R,ugm-3,60.95424,R,ugm-3,136.46022,R,ugm-3
02-01-2016,19:00,23.507,R,ugm-3 (Ref.eq),55.37763,R,ugm-3,61.88228,R,ugm-3,146.79346,R,ugm-3
02-01-2016,20:00,16.799,R,ugm-3 (Ref.eq),24.60424,R,ugm-3,42.00902,R,ugm-3,79.73499,R,ugm-3
02-01-2016,21:00,22.291,R,ugm-3 (Ref.eq),45.77404,R,ugm-3,47.15269,R,ugm-3,117.33857,R,ugm-3
02-01-2016,22:00,21.066,R,ugm-3 (Ref.eq),42.47930,R,ugm-3,46.34609,R,ugm-3,111.48010,R,ugm-3
02-01-2016,23:00,28.799,R,ugm-3 (Ref.eq),38.44865,R,ugm-3,46.50722,R,ugm-3,105.46099,R,ugm-3
02-01-2016,24:00,22.699,R,ugm-3 (Ref.eq),76.05661,R,ugm-3,57.97792,R,ugm-3,174.59643,R,ugm-3
03-01-2016,01:00,21.066,R,ugm-3 (Ref.eq),63.32210,R,ugm-3,49.90350,R,ugm-3,146.99603,R,ugm-3
03-01-2016,02:00,17.199,R,ugm-3 (Ref.eq),12.19735,R,ugm-3,23.94641,R,ugm-3,42.64875,R,ugm-3
03-01-2016,03:00,9.475,R,ugm-3 (Ref.eq),4.90719,R,ugm-3,10.92085,R,ugm-3,18.44511,R,ugm-3
03-01-2016,04:00,6.825,R,ugm-3 (Ref.eq),9.46358,R,ugm-3,17.04946,R,ugm-3,31.56008,R,ugm-3
03-01-2016,05:00,6.825,R,ugm-3 (Ref.eq),5.74818,R,ugm-3,14.37626,R,ugm-3,23.19002,R,ugm-3
03-01-2016,06:00,9.883,R,ugm-3 (Ref.eq),3.85540,R,ugm-3,8.80228,R,ugm-3,14.71382,R,ugm-3
03-01-2016,07:00,9.475,R,ugm-3 (Ref.eq),2.24327,R,ugm-3,7.64904,R,ugm-3,11.08868,R,ugm-3
03-01-2016,08:00,8.458,R,ugm-3 (Ref.eq),3.25951,R,ugm-3,8.01003,R,ugm-3,13.00787,R,ugm-3
03-01-2016,09:00,9.675,R,ugm-3 (Ref.eq),4.52146,R,ugm-3,7.24790,R,ugm-3,14.18071,R,ugm-3
03-01-2016,10:00,10.283,R,ugm-3 (Ref.eq),3.64523,R,ugm-3,8.85774,R,ugm-3,14.44703,R,ugm-3
03-01-2016,11:00,7.841,R,ugm-3 (Ref.eq),6.90474,R,ugm-3,10.68418,R,ugm-3,21.27130,R,ugm-3
03-01-2016,12:00,5.608,R,ugm-3 (Ref.eq),6.93967,R,ugm-3,11.69637,R,ugm-3,22.33704,R,ugm-3
03-01-2016,13:00,7.033,R,ugm-3 (Ref.eq),11.98687,R,ugm-3,22.45610,R,ugm-3,40.83570,R,ugm-3
03-01-2016,14:00,12.933,R,ugm-3 (Ref.eq),30.28257,R,ugm-3,40.57082,R,ugm-3,87.00345,R,ugm-3
03-01-2016,15:00,22.291,R,ugm-3 (Ref.eq),97.61214,R,ugm-3,97.00009,R,ugm-3,246.66995,R,ugm-3
03-01-2016,16:00,19.033,R,ugm-3 (Ref.eq),134.06292,R,ugm-3,108.86763,R,ugm-3,314.42791,R,ugm-3
03-01-2016,17:00,29.815,R,ugm-3 (Ref.eq),163.04862,R,ugm-3,114.05576,R,ugm-3,364.06015,R,ugm-3
03-01-2016,18:00,24.932,R,ugm-3 (Ref.eq),121.12967,R,ugm-3,109.66658,R,ugm-3,295.39614,R,ugm-3
03-01-2016,19:00,25.749,R,ugm-3 (Ref.eq),106.23410,R,ugm-3,103.07801,R,ugm-3,265.96803,R,ugm-3
03-01-2016,20:00,27.782,R,ugm-3 (Ref.eq),107.21510,R,ugm-3,103.17364,R,ugm-3,267.56783,R,ugm-3
03-01-2016,21:00,25.949,R,ugm-3 (Ref.eq),84.57380,R,ugm-3,93.32187,R,ugm-3,222.99989,R,ugm-3
03-01-2016,22:00,28.799,R,ugm-3 (Ref.eq),83.55725,R,ugm-3,93.86693,R,ugm-3,221.98627,R,ugm-3
03-01-2016,23:00,30.015,R,ugm-3 (Ref.eq),48.82338,R,ugm-3,72.33075,R,ugm-3,147.19222,R,ugm-3
03-01-2016,24:00,27.374,R,ugm-3 (Ref.eq),54.18583,R,ugm-3,68.31928,R,ugm-3,151.40306,R,ugm-3
04-01-2016,01:00,17.608,R,ugm-3 (Ref.eq),65.98591,R,ugm-3,62.31053,R,ugm-3,163.48751,R,ugm-3
04-01-2016,02:00,16.799,R,ugm-3 (Ref.eq),30.28278,R,ugm-3,55.92405,R,ugm-3,102.35700,R,ugm-3
04-01-2016,03:00,15.983,R,ugm-3 (Ref.eq),63.78942,R,ugm-3,56.25906,R,ugm-3,154.06813,R,ugm-3
04-01-2016,04:00,15.166,R,ugm-3 (Ref.eq),12.82817,R,ugm-3,45.15652,R,ugm-3,64.82610,R,ugm-3
04-01-2016,05:00,6.625,R,ugm-3 (Ref.eq),10.47950,R,ugm-3,23.16755,R,ugm-3,39.23589,R,ugm-3
04-01-2016,06:00,7.641,R,ugm-3 (Ref.eq),11.25065,R,ugm-3,27.21009,R,ugm-3,44.46084,R,ugm-3
04-01-2016,07:00,8.658,R,ugm-3 (Ref.eq),33.08619,R,ugm-3,43.09628,R,ugm-3,93.82773,R,ugm-3
04-01-2016,08:00,16.799,R,ugm-3 (Ref.eq),47.91191,R,ugm-3,54.21603,R,ugm-3,127.67993,R,ugm-3
04-01-2016,09:00,10.900,R,ugm-3 (Ref.eq),9.74360,R,ugm-3,35.11876,R,ugm-3,50.05873,R,ugm-3
04-01-2016,10:00,15.574,R,ugm-3 (Ref.eq),41.18273,R,ugm-3,55.79049,R,ugm-3,118.93646,R,ugm-3
04-01-2016,11:00,15.574,R,ugm-3 (Ref.eq),32.73570,R,ugm-3,45.33916,R,ugm-3,95.53320,R,ugm-3
04-01-2016,12:00,14.149,R,ugm-3 (Ref.eq),21.55522,R,ugm-3,37.26554,R,ugm-3,70.31641,R,ugm-3
04-01-2016,13:00,16.391,R,ugm-3 (Ref.eq),21.66030,R,ugm-3,40.46372,R,ugm-3,73.67572,R,ugm-3
04-01-2016,14:00,22.082,R,ugm-3 (Ref.eq),23.34260,R,ugm-3,40.60333,R,ugm-3,76.39481,R,ugm-3
04-01-2016,15:00,25.949,R,ugm-3 (Ref.eq),23.30767,R,ugm-3,43.80199,R,ugm-3,79.53992,R,ugm-3
04-01-2016,16:00,22.082,R,ugm-3 (Ref.eq),16.12260,R,ugm-3,40.63823,R,ugm-3,65.35921,R,ugm-3
04-01-2016,17:00,22.899,R,ugm-3 (Ref.eq),18.12046,R,ugm-3,38.32076,R,ugm-3,66.10508,R,ugm-3
04-01-2016,18:00,18.216,R,ugm-3 (Ref.eq),7.85113,R,ugm-3,32.63681,R,ugm-3,44.67504,R,ugm-3
04-01-2016,19:00,15.166,R,ugm-3 (Ref.eq),5.78280,R,ugm-3,28.61052,R,ugm-3,37.47735,R,ugm-3
04-01-2016,20:00,11.508,R,ugm-3 (Ref.eq),5.64310,R,ugm-3,29.94401,R,ugm-3,38.59664,R,ugm-3
04-01-2016,21:00,14.358,R,ugm-3 (Ref.eq),6.16852,R,ugm-3,25.14077,R,ugm-3,34.59904,R,ugm-3
04-01-2016,22:00,11.300,R,ugm-3 (Ref.eq),2.94394,R,ugm-3,22.62105,R,ugm-3,27.13503,R,ugm-3
04-01-2016,23:00,11.300,R,ugm-3 (Ref.eq),1.96232,R,ugm-3,12.82427,R,ugm-3,15.83311,R,ugm-3
04-01-2016,24:00,10.283,R,ugm-3 (Ref.eq),1.01624,R,ugm-3,9.21060,R,ugm-3,10.76881,R,ugm-3
05-01-2016,01:00,8.050,R,ugm-3 (Ref.eq),0.74796,R,ugm-3,7.59645,R,ugm-3,8.74331,R,ugm-3
05-01-2016,02:00,6.216,R,ugm-3 (Ref.eq),0.42076,R,ugm-3,6.67718,R,ugm-3,7.32233,R,ugm-3
05-01-2016,03:00,6.825,R,ugm-3 (Ref.eq),0.73622,R,ugm-3,7.66721,R,ugm-3,8.79607,R,ugm-3
05-01-2016,04:00,3.575,R,ugm-3 (Ref.eq),0.66575,R,ugm-3,12.04014,R,ugm-3,13.06094,R,ugm-3
05-01-2016,05:00,3.775,R,ugm-3 (Ref.eq),0.84130,R,ugm-3,11.93113,R,ugm-3,13.22111,R,ugm-3
05-01-2016,06:00,6.625,R,ugm-3 (Ref.eq),0.91146,R,ugm-3,13.90292,R,ugm-3,15.30048,R,ugm-3
05-01-2016,07:00,5.200,R,ugm-3 (Ref.eq),3.18935,R,ugm-3,18.35331,R,ugm-3,23.24357,R,ugm-3
05-01-2016,08:00,7.033,R,ugm-3 (Ref.eq),4.03065,R,ugm-3,23.35402,R,ugm-3,29.53426,R,ugm-3
05-01-2016,09:00,6.216,R,ugm-3 (Ref.eq),11.60114,R,ugm-3,34.45656,R,ugm-3,52.24472,R,ugm-3
05-01-2016,10:00,7.033,R,ugm-3 (Ref.eq),14.82572,R,ugm-3,35.05613,R,ugm-3,57.78858,R,ugm-3
05-01-2016,11:00,9.066,R,ugm-3 (Ref.eq),8.48195,R,ugm-3,28.20459,R,ugm-3,41.21007,R,ugm-3
05-01-2016,12:00,9.066,R,ugm-3 (Ref.eq),9.81376,R,ugm-3,29.89381,R,ugm-3,44.94136,R,ugm-3
05-01-2016,13:00,10.491,R,ugm-3 (Ref.eq),16.85851,R,ugm-3,37.27080,R,ugm-3,63.12015,R,ugm-3
05-01-2016,14:00,10.283,R,ugm-3 (Ref.eq),21.87078,R,ugm-3,38.70135,R,ugm-3,72.23608,R,ugm-3
05-01-2016,15:00,8.858,R,ugm-3 (Ref.eq),33.61224,R,ugm-3,47.40705,R,ugm-3,98.94510,R,ugm-3
05-01-2016,16:00,12.525,R,ugm-3 (Ref.eq),35.36439,R,ugm-3,44.13381,R,ugm-3,98.35844,R,ugm-3
05-01-2016,17:00,11.100,R,ugm-3 (Ref.eq),39.36011,R,ugm-3,44.77784,R,ugm-3,105.12917,R,ugm-3
05-01-2016,18:00,11.708,R,ugm-3 (Ref.eq),38.97470,R,ugm-3,47.44817,R,ugm-3,107.20853,R,ugm-3
05-01-2016,19:00,14.149,R,ugm-3 (Ref.eq),35.85551,R,ugm-3,46.36713,R,ugm-3,101.34481,R,ugm-3
05-01-2016,20:00,12.325,R,ugm-3 (Ref.eq),28.14439,R,ugm-3,42.78310,R,ugm-3,85.93723,R,ugm-3
05-01-2016,21:00,12.116,R,ugm-3 (Ref.eq),18.68112,R,ugm-3,34.52971,R,ugm-3,63.17370,R,ugm-3
05-01-2016,22:00,8.458,R,ugm-3 (Ref.eq),19.31226,R,ugm-3,34.30834,R,ugm-3,63.92005,R,ugm-3
05-01-2016,23:00,6.416,R,ugm-3 (Ref.eq),15.84227,R,ugm-3,28.80655,R,ugm-3,53.09769,R,ugm-3
05-01-2016,24:00,8.658,R,ugm-3 (Ref.eq),14.61524,R,ugm-3,29.51513,R,ugm-3,51.92485,R,ugm-3
06-01-2016,01:00,8.050,R,ugm-3 (Ref.eq),16.41738,R,ugm-3,27.11861,R,ugm-3,52.29158,R,ugm-3
06-01-2016,02:00,8.050,R,ugm-3 (Ref.eq),10.94506,R,ugm-3,21.28039,R,ugm-3,38.06258,R,ugm-3
06-01-2016,03:00,7.441,R,ugm-3 (Ref.eq),7.47226,R,ugm-3,16.98300,R,ugm-3,28.44031,R,ugm-3
06-01-2016,04:00,6.016,R,ugm-3 (Ref.eq),6.63034,R,ugm-3,16.61963,R,ugm-3,26.78600,R,ugm-3
06-01-2016,05:00,9.066,R,ugm-3 (Ref.eq),46.90253,R,ugm-3,36.13525,R,ugm-3,108.05147,R,ugm-3
06-01-2016,06:00,10.691,R,ugm-3 (Ref.eq),64.72333,R,ugm-3,38.79841,R,ugm-3,138.03947,R,ugm-3
06-01-2016,07:00,13.741,R,ugm-3 (Ref.eq),122.22012,R,ugm-3,66.15911,R,ugm-3,253.56068,R,ugm-3
06-01-2016,08:00,24.732,R,ugm-3 (Ref.eq),233.38916,R,ugm-3,99.69241,R,ugm-3,457.55080,R,ugm-3
06-01-2016,09:00,32.865,R,ugm-3 (Ref.eq),277.24018,R,ugm-3,99.47438,R,ugm-3,524.57006,R,ugm-3
06-01-2016,10:00,32.457,R,ugm-3 (Ref.eq),290.60531,R,ugm-3,92.10696,R,ugm-3,537.69555,R,ugm-3
06-01-2016,11:00,34.899,R,ugm-3 (Ref.eq),219.74308,R,ugm-3,91.85594,R,ugm-3,428.79063,R,ugm-3
06-01-2016,12:00,27.782,R,ugm-3 (Ref.eq),192.66108,R,ugm-3,81.35632,R,ugm-3,376.76585,R,ugm-3
06-01-2016,13:00,22.699,R,ugm-3 (Ref.eq),125.27195,R,ugm-3,76.95374,R,ugm-3,269.03472,R,ugm-3
06-01-2016,14:00,22.291,R,ugm-3 (Ref.eq),140.70698,R,ugm-3,68.97431,R,ugm-3,284.72200,R,ugm-3
06-01-2016,15:00,39.582,R,ugm-3 (Ref.eq),171.26177,R,ugm-3,94.15907,R,ugm-3,356.75679,R,ugm-3
06-01-2016,16:00,20.049,R,ugm-3 (Ref.eq),83.98258,R,ugm-3,73.56527,R,ugm-3,202.33676,R,ugm-3
06-01-2016,17:00,23.716,R,ugm-3 (Ref.eq),103.62724,R,ugm-3,70.65683,R,ugm-3,229.54973,R,ugm-3
06-01-2016,18:00,20.258,R,ugm-3 (Ref.eq),54.93546,R,ugm-3,56.42018,R,ugm-3,140.65338,R,ugm-3
06-01-2016,19:00,20.666,R,ugm-3 (Ref.eq),33.71202,R,ugm-3,44.46132,R,ugm-3,96.15237,R,ugm-3
06-01-2016,20:00,18.624,R,ugm-3 (Ref.eq),23.29333,R,ugm-3,31.40899,R,ugm-3,67.12493,R,ugm-3
06-01-2016,21:00,16.799,R,ugm-3 (Ref.eq),12.20795,R,ugm-3,22.79461,R,ugm-3,41.51320,R,ugm-3
06-01-2016,22:00,12.116,R,ugm-3 (Ref.eq),6.98083,R,ugm-3,15.06811,R,ugm-3,25.77189,R,ugm-3
06-01-2016,23:00,13.741,R,ugm-3 (Ref.eq),6.48939,R,ugm-3,12.72673,R,ugm-3,22.67699,R,ugm-3
06-01-2016,24:00,8.050,R,ugm-3 (Ref.eq),3.61343,R,ugm-3,5.50513,R,ugm-3,11.04564,R,ugm-3
07-01-2016,01:00,5.808,R,ugm-3 (Ref.eq),2.66590,R,ugm-3,6.94046,R,ugm-3,11.02811,R,ugm-3
07-01-2016,02:00,4.383,R,ugm-3 (Ref.eq),2.38525,R,ugm-3,8.29515,R,ugm-3,11.95249,R,ugm-3
07-01-2016,03:00,8.250,R,ugm-3 (Ref.eq),2.24514,R,ugm-3,8.02963,R,ugm-3,11.47213,R,ugm-3
07-01-2016,04:00,9.883,R,ugm-3 (Ref.eq),3.05214,R,ugm-3,9.61988,R,ugm-3,14.29976,R,ugm-3
07-01-2016,05:00,5.000,R,ugm-3 (Ref.eq),6.13921,R,ugm-3,15.87805,R,ugm-3,25.29138,R,ugm-3
07-01-2016,06:00,3.975,R,ugm-3 (Ref.eq),7.05099,R,ugm-3,17.20198,R,ugm-3,28.01334,R,ugm-3
07-01-2016,07:00,4.791,R,ugm-3 (Ref.eq),19.04845,R,ugm-3,39.67864,R,ugm-3,68.88586,R,ugm-3
07-01-2016,08:00,14.149,R,ugm-3 (Ref.eq),56.76026,R,ugm-3,73.47203,R,ugm-3,160.50322,R,ugm-3
07-01-2016,09:00,18.216,R,ugm-3 (Ref.eq),147.09159,R,ugm-3,97.01587,R,ugm-3,322.55317,R,ugm-3
07-01-2016,10:00,23.307,R,ugm-3 (Ref.eq),131.41085,R,ugm-3,125.70193,R,ugm-3,327.19576,R,ugm-3
07-01-2016,11:00,30.832,R,ugm-3 (Ref.eq),100.64557,R,ugm-3,81.57817,R,ugm-3,235.89923,R,ugm-3
07-01-2016,12:00,30.632,R,ugm-3 (Ref.eq),76.05412,R,ugm-3,74.35609,R,ugm-3,190.97078,R,ugm-3
07-01-2016,13:00,21.882,R,ugm-3 (Ref.eq),65.35447,R,ugm-3,61.41468,R,ugm-3,161.62346,R,ugm-3
07-01-2016,14:00,25.541,R,ugm-3 (Ref.eq),79.45675,R,ugm-3,79.91716,R,ugm-3,201.74915,R,ugm-3
07-01-2016,15:00,15.574,R,ugm-3 (Ref.eq),68.89805,R,ugm-3,75.03024,R,ugm-3,180.67244,R,ugm-3
07-01-2016,16:00,11.916,R,ugm-3 (Ref.eq),64.54778,R,ugm-3,69.69485,R,ugm-3,168.66672,R,ugm-3
07-01-2016,17:00,23.107,R,ugm-3 (Ref.eq),68.54724,R,ugm-3,80.31735,R,ugm-3,185.42166,R,ugm-3
07-01-2016,18:00,14.358,R,ugm-3 (Ref.eq),81.17584,R,ugm-3,67.99703,R,ugm-3,192.46492,R,ugm-3
07-01-2016,19:00,27.982,R,ugm-3 (Ref.eq),70.68667,R,ugm-3,84.66685,R,ugm-3,193.05158,R,ugm-3
07-01-2016,20:00,24.124,R,ugm-3 (Ref.eq),62.86392,R,ugm-3,69.76896,R,ugm-3,166.15896,R,ugm-3
07-01-2016,21:00,21.066,R,ugm-3 (Ref.eq),59.00540,R,ugm-3,75.95207,R,ugm-3,166.42575,R,ugm-3
07-01-2016,22:00,32.057,R,ugm-3 (Ref.eq),56.58439,R,ugm-3,71.60735,R,ugm-3,158.36887,R,ugm-3
07-01-2016,23:00,22.491,R,ugm-3 (Ref.eq),27.88932,R,ugm-3,45.49264,R,ugm-3,88.25566,R,ugm-3
07-01-2016,24:00,20.666,R,ugm-3 (Ref.eq),37.22037,R,ugm-3,52.31500,R,ugm-3,109.38544,R,ugm-3
08-01-2016,01:00,18.833,R,ugm-3 (Ref.eq),71.61082,R,ugm-3,54.32966,R,ugm-3,164.13139,R,ugm-3
08-01-2016,02:00,21.682,R,ugm-3 (Ref.eq),51.87188,R,ugm-3,43.75864,R,ugm-3,123.29441,R,ugm-3
08-01-2016,03:00,23.916,R,ugm-3 (Ref.eq),65.81067,R,ugm-3,43.10727,R,ugm-3,144.01555,R,ugm-3
08-01-2016,04:00,18.624,R,ugm-3 (Ref.eq),78.19386,R,ugm-3,47.06423,R,ugm-3,166.95982,R,ugm-3
08-01-2016,05:00,23.716,R,ugm-3 (Ref.eq),110.95918,R,ugm-3,48.15579,R,ugm-3,218.29084,R,ugm-3
08-01-2016,06:00,21.066,R,ugm-3 (Ref.eq),112.29224,R,ugm-3,57.90381,R,ugm-3,230.08283,R,ugm-3
08-01-2016,07:00,28.391,R,ugm-3 (Ref.eq),240.44046,R,ugm-3,97.73879,R,ugm-3,466.40903,R,ugm-3
08-01-2016,08:00,40.190,R,ugm-3 (Ref.eq),460.85022,R,ugm-3,163.92085,R,ugm-3,870.54801,R,ugm-3
08-01-2016,09:00,39.382,R,ugm-3 (Ref.eq),464.70843,R,ugm-3,137.62207,R,ugm-3,850.16506,R,ugm-3
08-01-2016,10:00,48.740,R,ugm-3 (Ref.eq),458.81556,R,ugm-3,138.70693,R,ugm-3,842.21432,R,ugm-3
08-01-2016,11:00,43.857,R,ugm-3 (Ref.eq),358.06491,R,ugm-3,122.33498,R,ugm-3,671.36018,R,ugm-3
08-01-2016,12:00,32.457,R,ugm-3 (Ref.eq),171.05160,R,ugm-3,111.98261,R,ugm-3,374.25808,R,ugm-3
08-01-2016,13:00,15.783,R,ugm-3 (Ref.eq),122.50014,R,ugm-3,101.21380,R,ugm-3,289.04473,R,ugm-3
08-01-2016,14:00,14.758,R,ugm-3 (Ref.eq),102.29419,R,ugm-3,79.15694,R,ugm-3,236.00585,R,ugm-3
08-01-2016,15:00,16.999,R,ugm-3 (Ref.eq),152.49427,R,ugm-3,103.88604,R,ugm-3,337.70734,R,ugm-3
08-01-2016,16:00,22.899,R,ugm-3 (Ref.eq),153.26573,R,ugm-3,117.43037,R,ugm-3,352.43454,R,ugm-3
08-01-2016,17:00,17.408,R,ugm-3 (Ref.eq),214.20070,R,ugm-3,130.82217,R,ugm-3,459.25867,R,ugm-3
08-01-2016,18:00,20.866,R,ugm-3 (Ref.eq),125.27195,R,ugm-3,102.19205,R,ugm-3,294.27303,R,ugm-3
08-01-2016,19:00,33.482,R,ugm-3 (Ref.eq),194.62557,R,ugm-3,122.09878,R,ugm-3,420.52050,R,ugm-3
08-01-2016,20:00,36.124,R,ugm-3 (Ref.eq),201.71180,R,ugm-3,111.12629,R,ugm-3,420.41340,R,ugm-3
08-01-2016,21:00,32.457,R,ugm-3 (Ref.eq),140.81206,R,ugm-3,85.94153,R,ugm-3,301.85035,R,ugm-3
08-01-2016,22:00,32.057,R,ugm-3 (Ref.eq),137.86594,R,ugm-3,78.02665,R,ugm-3,289.41815,R,ugm-3
08-01-2016,23:00,61.964,R,ugm-3 (Ref.eq),201.71149,R,ugm-3,83.27360,R,ugm-3,392.56023,R,ugm-3
08-01-2016,24:00,69.081,R,ugm-3 (Ref.eq),244.82566,R,ugm-3,83.06418,R,ugm-3,458.45828,R,ugm-3
09-01-2016,01:00,60.131,R,ugm-3 (Ref.eq),199.30316,R,ugm-3,62.01218,R,ugm-3,367.60609,R,ugm-3
09-01-2016,02:00,47.515,R,ugm-3 (Ref.eq),170.25645,R,ugm-3,51.34106,R,ugm-3,312.39731,R,ugm-3
09-01-2016,03:00,50.565,R,ugm-3 (Ref.eq),182.62811,R,ugm-3,52.55980,R,ugm-3,332.58566,R,ugm-3
09-01-2016,04:00,45.073,R,ugm-3 (Ref.eq),147.16176,R,ugm-3,42.21605,R,ugm-3,267.86093,R,ugm-3
09-01-2016,05:00,39.582,R,ugm-3 (Ref.eq),159.58081,R,ugm-3,45.63799,R,ugm-3,290.32515,R,ugm-3
09-01-2016,06:00,39.173,R,ugm-3 (Ref.eq),161.19388,R,ugm-3,46.52634,R,ugm-3,293.68685,R,ugm-3
09-01-2016,07:00,35.107,R,ugm-3 (Ref.eq),175.54188,R,ugm-3,69.40032,R,ugm-3,338.56079,R,ugm-3
09-01-2016,08:00,12.116,R,ugm-3 (Ref.eq),59.49621,R,ugm-3,79.52127,R,ugm-3,170.74752,R,ugm-3
09-01-2016,09:00,10.691,R,ugm-3 (Ref.eq),31.32656,R,ugm-3,78.26667,R,ugm-3,126.30007,R,ugm-3
09-01-2016,10:00,10.691,R,ugm-3 (Ref.eq),49.60325,R,ugm-3,78.30970,R,ugm-3,154.36696,R,ugm-3
09-01-2016,11:00,18.016,R,ugm-3 (Ref.eq),116.46664,R,ugm-3,104.32831,R,ugm-3,282.90800,R,ugm-3
09-01-2016,12:00,18.424,R,ugm-3 (Ref.eq),81.07013,R,ugm-3,91.15740,R,ugm-3,215.46321,R,ugm-3
09-01-2016,13:00,8.050,R,ugm-3 (Ref.eq),33.32599,R,ugm-3,55.03123,R,ugm-3,106.13036,R,ugm-3
09-01-2016,14:00,8.658,R,ugm-3 (Ref.eq),25.01211,R,ugm-3,48.56985,R,ugm-3,86.92121,R,ugm-3
09-01-2016,15:00,10.283,R,ugm-3 (Ref.eq),49.74388,R,ugm-3,80.60231,R,ugm-3,156.87520,R,ugm-3
09-01-2016,16:00,16.591,R,ugm-3 (Ref.eq),49.88420,R,ugm-3,85.82918,R,ugm-3,162.31722,R,ugm-3
09-01-2016,17:00,14.758,R,ugm-3 (Ref.eq),64.72333,R,ugm-3,95.30513,R,ugm-3,194.54619,R,ugm-3
09-01-2016,18:00,28.999,R,ugm-3 (Ref.eq),78.12401,R,ugm-3,99.56953,R,ugm-3,219.35801,R,ugm-3
09-01-2016,19:00,27.174,R,ugm-3 (Ref.eq),47.25303,R,ugm-3,87.83634,R,ugm-3,160.28997,R,ugm-3
09-01-2016,20:00,19.441,R,ugm-3 (Ref.eq),23.60921,R,ugm-3,73.18516,R,ugm-3,109.38544,R,ugm-3
09-01-2016,21:00,23.507,R,ugm-3 (Ref.eq),20.45198,R,ugm-3,64.74004,R,ugm-3,96.09930,R,ugm-3
09-01-2016,22:00,4.591,R,ugm-3 (Ref.eq),3.19215,R,ugm-3,26.80082,R,ugm-3,31.69538,R,ugm-3
09-01-2016,23:00,5.000,R,ugm-3 (Ref.eq),6.94559,R,ugm-3,27.55530,R,ugm-3,38.20506,R,ugm-3
09-01-2016,24:00,6.825,R,ugm-3 (Ref.eq),5.75317,R,ugm-3,22.98108,R,ugm-3,31.80248,R,ugm-3
10-01-2016,01:00,7.441,R,ugm-3 (Ref.eq),6.96908,R,ugm-3,20.36175,R,ugm-3,31.04753,R,ugm-3
10-01-2016,02:00,7.441,R,ugm-3 (Ref.eq),8.32573,R,ugm-3,19.20724,R,ugm-3,31.97318,R,ugm-3
10-01-2016,03:00,7.641,R,ugm-3 (Ref.eq),5.71794,R,ugm-3,14.94523,R,ugm-3,23.71261,R,ugm-3
10-01-2016,04:00,8.050,R,ugm-3 (Ref.eq),3.19215,R,ugm-3,9.84507,R,ugm-3,14.73964,R,ugm-3
10-01-2016,05:00,7.233,R,ugm-3 (Ref.eq),2.77150,R,ugm-3,5.73750,R,ugm-3,9.98708,R,ugm-3
10-01-2016,06:00,5.400,R,ugm-3 (Ref.eq),1.82418,R,ugm-3,5.69447,R,ugm-3,8.49150,R,ugm-3
10-01-2016,07:00,3.575,R,ugm-3 (Ref.eq),3.19246,R,ugm-3,5.73272,R,ugm-3,10.62776,R,ugm-3
10-01-2016,08:00,2.967,R,ugm-3 (Ref.eq),6.06905,R,ugm-3,11.84363,R,ugm-3,21.14938,R,ugm-3
10-01-2016,09:00,3.167,R,ugm-3 (Ref.eq),6.94590,R,ugm-3,10.44560,R,ugm-3,21.09583,R,ugm-3
10-01-2016,10:00,4.791,R,ugm-3 (Ref.eq),11.05014,R,ugm-3,14.56656,R,ugm-3,31.50987,R,ugm-3
10-01-2016,11:00,6.216,R,ugm-3 (Ref.eq),14.38262,R,ugm-3,20.40494,R,ugm-3,42.45798,R,ugm-3
10-01-2016,12:00,5.608,R,ugm-3 (Ref.eq),11.22570,R,ugm-3,24.92513,R,ugm-3,42.13763,R,ugm-3
10-01-2016,13:00,7.033,R,ugm-3 (Ref.eq),20.94310,R,ugm-3,33.63131,R,ugm-3,65.74362,R,ugm-3
10-01-2016,14:00,8.050,R,ugm-3 (Ref.eq),31.08116,R,ugm-3,33.68104,R,ugm-3,81.33815,R,ugm-3
10-01-2016,15:00,8.858,R,ugm-3 (Ref.eq),41.25476,R,ugm-3,48.04343,R,ugm-3,111.29985,R,ugm-3
10-01-2016,16:00,13.341,R,ugm-3 (Ref.eq),39.11439,R,ugm-3,32.47234,R,ugm-3,92.44690,R,ugm-3
10-01-2016,17:00,15.983,R,ugm-3 (Ref.eq),49.07720,R,ugm-3,51.05562,R,ugm-3,126.30628,R,ugm-3
10-01-2016,18:00,10.491,R,ugm-3 (Ref.eq),22.48632,R,ugm-3,36.81897,R,ugm-3,71.29752,R,ugm-3
10-01-2016,19:00,9.475,R,ugm-3 (Ref.eq),16.24203,R,ugm-3,28.39584,R,ugm-3,53.29994,R,ugm-3
10-01-2016,20:00,14.966,R,ugm-3 (Ref.eq),16.55791,R,ugm-3,29.19288,R,ugm-3,54.58132,R,ugm-3
10-01-2016,21:00,8.658,R,ugm-3 (Ref.eq),18.31224,R,ugm-3,30.72240,R,ugm-3,58.80077,R,ugm-3
10-01-2016,22:00,9.066,R,ugm-3 (Ref.eq),13.82164,R,ugm-3,37.34061,R,ugm-3,58.53350,R,ugm-3
10-01-2016,23:00,8.050,R,ugm-3 (Ref.eq),20.62722,R,ugm-3,29.41568,R,ugm-3,61.04365,R,ugm-3
10-01-2016,24:00,9.266,R,ugm-3 (Ref.eq),21.96059,R,ugm-3,31.10968,R,ugm-3,64.78211,R,ugm-3
11-01-2016,01:00,13.133,R,ugm-3 (Ref.eq),5.89890,R,ugm-3,24.63683,R,ugm-3,33.68168,R,ugm-3
11-01-2016,02:00,12.325,R,ugm-3 (Ref.eq),25.98251,R,ugm-3,33.00656,R,ugm-3,72.84585,R,ugm-3
11-01-2016,03:00,42.223,R,ugm-3 (Ref.eq),10.42836,R,ugm-3,22.99686,R,ugm-3,38.98679,R,ugm-3
11-01-2016,04:00,7.841,R,ugm-3 (Ref.eq),7.30325,R,ugm-3,24.42454,R,ugm-3,35.62270,R,ugm-3
11-01-2016,05:00,10.083,R,ugm-3 (Ref.eq),8.39121,R,ugm-3,23.45012,R,ugm-3,36.31646,R,ugm-3
11-01-2016,06:00,10.491,R,ugm-3 (Ref.eq),12.14870,R,ugm-3,25.64615,R,ugm-3,44.27390,R,ugm-3
11-01-2016,07:00,8.658,R,ugm-3 (Ref.eq),39.46551,R,ugm-3,44.05683,R,ugm-3,104.56976,R,ugm-3
11-01-2016,08:00,14.149,R,ugm-3 (Ref.eq),104.77258,R,ugm-3,85.92910,R,ugm-3,246.57815,R,ugm-3
11-01-2016,09:00,15.983,R,ugm-3 (Ref.eq),149.32925,R,ugm-3,113.20805,R,ugm-3,342.17637,R,ugm-3
11-01-2016,10:00,21.066,R,ugm-3 (Ref.eq),184.72170,R,ugm-3,103.26687,R,ugm-3,386.50286,R,ugm-3
11-01-2016,11:00,20.866,R,ugm-3 (Ref.eq),120.39750,R,ugm-3,87.81961,R,ugm-3,272.42654,R,ugm-3
11-01-2016,12:00,21.066,R,ugm-3 (Ref.eq),127.91124,R,ugm-3,84.63004,R,ugm-3,280.75787,R,ugm-3
11-01-2016,13:00,21.474,R,ugm-3 (Ref.eq),157.54553,R,ugm-3,95.10863,R,ugm-3,336.67507,R,ugm-3
11-01-2016,14:00,14.758,R,ugm-3 (Ref.eq),138.72564,R,ugm-3,112.21594,R,ugm-3,324.92562,R,ugm-3
11-01-2016,15:00,12.525,R,ugm-3 (Ref.eq),97.08360,R,ugm-3,97.66564,R,ugm-3,246.52508,R,ugm-3
11-01-2016,16:00,11.916,R,ugm-3 (Ref.eq),130.01793,R,ugm-3,117.66322,R,ugm-3,317.02126,R,ugm-3